Miscellaneous Local Product
Issued by NWS North Platte, NE

Home | Current Version | Previous Version | Text Only | Print | Product List | Glossary On
Versions: 1 2 3 4 5 6 7 8 9 10 11 12 13 14 15 16 17 18 19 20 21 22 23 24 25 26 27 28 29 30 31 32 33 34 35 36 37 38 39 40 41 42 43 44 45 46 47 48 49 50
880
AXUS43 KLBF 211410
MISLBF


WESTERN AND NORTH CENTRAL NEBRASKA HOURLY WEATHER ROUNDUP
NATIONAL WEATHER SERVICE NORTH PLATTE NE
900 AM CDT THU SEP 21 2017

NOTE: "FAIR" INDICATES FEW OR NO CLOUDS BELOW 12,000 FEET WITH NO
SIGNIFICANT WEATHER AND/OR OBSTRUCTIONS TO VISIBILITY.

NOTE: STATIONS NOT REPORTING VARIABLES SUCH AS SKY/WEATHER OR
PRESSURE ARE PROVIDED BY RAWS AND APRS NETWORKS AND ARE NOT UNDER
NATIONAL WEATHER SERVICE QUALITY CONTROL.

...OBSERVATIONS IN AND NEAR THE EASTERN PANHANDLE OF NEBRASKA...

CITY           SKY/WX    TMP DP  RH WIND       PRES   REMARKS
PINE RIDGE     SUNNY     62  51  67 S26G40    29.68S
GORDON         FAIR      61  51  70 S13G18    29.74F
CHADRON        SUNNY     60  42  51 S15G23    29.69R
ALLIANCE       SUNNY     53  46  77 SE14      29.75S
SIDNEY         SUNNY     53  41  63 S10       29.77S
CRESCENT LAKE    N/A     55  49  82 SE6         N/A
$$

...OBSERVATIONS IN NORTHERN NEBRASKA AND FAR SOUTHERN SOUTH DAKOTA...

CITY           SKY/WX    TMP DP  RH WIND       PRES   REMARKS
WINNER         FAIR      60  50  69 SE14      29.77F
VALENTINE      SUNNY     60  51  72 SE7       29.79S
THEDFORD       SUNNY     60  54  80 SE10      29.79F
AINSWORTH      SUNNY     60  52  75 SE15      29.78F
O`NEILL        MOSUNNY   62  55  77 SE16      29.82F
ORD            SUNNY     57  50  77 CALM      29.81S
BROKEN BOW     SUNNY     56  50  80 SE7       29.80F
HALSEY           N/A     54  49  83 SE7         N/A
BUTTE            N/A     58  51  77 SE16        N/A
CHAMBERS         N/A     61  54  78 E6          N/A
EWING            N/A     61  56  83 SE3         N/A
$$

...OBSERVATIONS IN SOUTHWEST NEBRASKA AND FAR NORTHEAST COLORADO...

CITY           SKY/WX    TMP DP  RH WIND       PRES   REMARKS
WRAY           FAIR      55  41  58 CALM      29.77S
IMPERIAL       SUNNY     52  45  77 SE9       29.77F
OGALLALA       SUNNY     54  49  82 E5        29.77S
NORTH PLATTE   CLOUDY    54  50  86 E10       29.79S
MCCOOK         SUNNY     55  50  83 E8        29.78F
LEXINGTON      SUNNY     57  51  80 SE9       29.80S
STAPLETON        N/A     60  56  86 CALM        N/A
GOTHENBURG       N/A     51  46  83 E3          N/A
CALLAWAY         N/A     56  54  92 SE6         N/A
$$

...OBSERVATIONS IN CENTRAL LINCOLN COUNTY AREA...

CITY           SKY/WX    TMP DP  RH WIND       PRES   REMARKS
N.P. AIRPORT   CLOUDY    54  50  86 E10       29.79S
N.P. DOWNTOWN    N/A     55  50  84 CALM        N/A
N.P. SOUTHEAST   N/A     53  49  88 CALM        N/A
N.P. HILLCREST   N/A     57  53  86 SE10        N/A
$$

...SOME OBSERVATIONS FROM AROUND THE REGION...

CITY           SKY/WX    TMP DP  RH WIND       PRES   REMARKS
DENVER         CLOUDY    63  29  27 SW7       29.80R
LIMON          CLOUDY    63  32  31 S7        29.85S
ASPEN          CLOUDY    51  27  39 SE13      30.00S
LARAMIE        SUNNY     56  26  31 S14       29.86R
CASPER         SUNNY     45  35  68 NW10      29.75R
CHEYENNE       CLOUDY    55  34  45 CALM      29.82S
SCOTTSBLUFF    SUNNY     51  41  68 E12       29.75S
GRAND ISLAND   CLOUDY    58  56  93 SE5       29.82F
OMAHA          MOSUNNY   72  64  76 SE12      29.86S
SIOUX FALLS    MOSUNNY   62  54  74 E15       29.87F
PIERRE         SUNNY     60  47  61 SE15      29.73F
RAPID CITY     SUNNY     57  39  51 S12       29.66S
BISMARCK       CLOUDY    60  46  59 SE18      29.70R
KANSAS CITY    MOSUNNY   79  72  79 S13       29.92R
HILL CITY      SUNNY     60  51  72 CALM      29.80F
WICHITA        MOSUNNY   77  72  84 S14       29.84S
DODGE CITY     SUNNY     65  56  72 S8        29.83S
OKLAHOMA CITY  PTSUNNY   78  71  79 S18       29.89S
DALLAS         PTSUNNY   81  74  79 S12       29.94S
AMARILLO       SUNNY     64  51  62 S13       29.92R
$$




USA.gov is the U.S. government's official web portal to all federal, state and local government web resources and services.